Regional Weather Roundup
Issued by NWS

Home | Current Version | Previous Version | Text Only | Print | Product List | Glossary On
Versions: 1 2 3 4 5 6 7 8 9 10 11 12 13 14 15 16 17 18 19 20 21 22 23 24 25 26 27 28 29 30 31 32 33 34 35 36 37 38 39 40 41 42 43 44 45 46 47 48 49 50
147
ASUS45 KBOU 231707
RWRCO

WEATHER ROUNDUP FOR COLORADO
NATIONAL WEATHER SERVICE DENVER/BOULDER CO
1100 AM MDT TUE MAY 23 2017

NOTE: "FAIR" INDICATES FEW OR NO CLOUDS BELOW 12000 FEET WITH NO
SIGNIFICANT WEATHER AND/OR OBSTRUCTIONS TO VISIBILITY.

COZ001>005-013-030-031-231800-
...NORTHWEST COLORADO...

CITY           SKY/WX    TMP DP  RH WIND       PRES   REMARKS
CRAIG          FAIR      49  35  58 N3        30.33F
HAYDEN         FAIR      45  34  65 W5        30.33F
MEEKER         FAIR      50  34  54 S6        30.31F
RABBIT EARS PA PTSUNNY   30  28  93 W7        30.37R WCI  23
STEAMBOAT SPGS FAIR      44  34  68 SE5       30.32F
WALDEN           N/A     41  30  65 N13       30.37S
$$

COZ006>008-011-231800-
...WEST CENTRAL VALLEYS...

CITY           SKY/WX    TMP DP  RH WIND       PRES   REMARKS
GRAND JUNCTION FAIR      61  30  31 N9        30.26F
MONTROSE       FAIR      54  31  41 CALM      30.30F
EAGLE          MOSUNNY   48  28  46 E6        30.33F
RIFLE          FAIR      57  25  29 VRB5      30.27F
DELTA          FAIR      63  27  26 W7        30.26F
NUCLA          FAIR      61  21  21 N12G22    30.29F
$$

COZ017>023-064>068-231800-
...SOUTHWEST COLORADO...

CITY           SKY/WX    TMP DP  RH WIND       PRES   REMARKS
DURANGO        FAIR      61  15  16 VRB6      30.17F
CORTEZ         FAIR      63  20  19 N17       30.21F
PAGOSA SPRINGS FAIR      58   6  13 N10       30.22F
TELLURIDE      NOT AVBL
WOLF CREEK PAS FAIR      32  10  40 N9G16     30.41R WCI  24
$$

COZ009-010-012-014-032>034-037-058>063-231800-
...CENTRAL COLORADO...

CITY           SKY/WX    TMP DP  RH WIND       PRES   REMARKS
ASPEN          FAIR      46  28  49 N8        30.30F
BUENA VISTA    FAIR      49  19  30 NW24      30.25F
COPPER MTN     PTSUNNY   28  23  80 MISG      30.36S
BERTHOUD PASS  CLOUDY    19   9  63 N10G31    30.33S WCI   8
COTTONWOOD PAS FAIR      43  30  61 N3        30.31S
GUNNISON       FAIR      48  25  40 W5        30.27F
KREMMLING      PTSUNNY   50  32  50 W10G17    30.32S
LEADVILLE      FAIR      35  23  61 N16G23    30.31S WCI  25
MONARCH PASS   FAIR      32  18  55 NW6       30.46R WCI  26
SALIDA         FAIR      51  22  32 CALM      30.32F
SUNLIGHT       PTSUNNY   32  21  64 CALM      30.42S
WILKERSON PASS PTSUNNY   32  21  64 CALM      30.35F
$$

COZ069>075-231800-
...SAN LUIS VALLEY/SANGRE DE CRISTO MOUNTAINS...

CITY           SKY/WX    TMP DP  RH WIND       PRES   REMARKS
ALAMOSA        FAIR      54  22  28 N16       30.22F
DEL NORTE      FAIR      52  17  25 CALM      30.24F
LA VETA PASS   FAIR      36  30  80 NW8G20    30.41F
SAGUACHE       FAIR      52  23  32 NW15G22   30.24F
$$

COZ035-036-038>040-231800-
...NORTHERN COLORADO FRONT RANGE...

CITY           SKY/WX    TMP DP  RH WIND       PRES   REMARKS
DENVER INTL AP FAIR      54  32  43 N20G26    30.20F
DMNS CITY PARK   N/A     54  28  35 NE9G23    30.19F
AURORA         PTSUNNY   55  28  35 N22G28    30.20F
FRONT RANGE AP NOT AVBL
ERIE MUNI ARPT CLOUDY    57  29  34 N10G20    30.19F
BOULDER MUN AP FAIR      55  30  38 N9        30.19F
CENTENNIAL     PTSUNNY   53  28  38 N20G30    30.20F
BROOMFIELD     PTSUNNY   55  28  35 N12G18    30.21F
FORT COLLINS   FAIR      56  30  37 N16G25    30.19F
LONGMONT       PTSUNNY   62  31  30 N14G20    30.20F
$$

COZ041-046-047-076>085-087-088-231800-
...PIKES PEAK/PALMER DIVIDE AND SOUTHERN FOOTHILLS...

CITY           SKY/WX    TMP DP  RH WIND       PRES   REMARKS
COLO. SPRINGS  FAIR      55  25  31 N16G23    30.22F
A. F. ACADEMY  PTSUNNY   52  23  31 N18G31    30.21F
SCHRIEVER AFB  FAIR      51  25  36 N22G30    30.22F
CHEYENNE MTN   PTSUNNY   47  23  38 N14G23    30.17F
ELLICOTT       CLOUDY   N/A N/A N/A N16       30.20F
FALCON         CLOUDY    47  22  37 NW17G23   30.24S
FORT CARSON    PTSUNNY   55  25  32 N16G23    30.21F
LIMON          PTSUNNY   54  34  46 N25G31    30.18F
MONUMENT HILL  PTSUNNY   45  30  57 N20G26    30.24F
CANON CITY     NOT AVBL
WALSENBURG     PTSUNNY   55  34  44 CALM      30.22F
TRINIDAD       FAIR      55  34  45 N16G25    30.21F
$$

COZ042>045-048>051-090-091-231800-
...NORTHEAST COLORADO...

CITY           SKY/WX    TMP DP  RH WIND       PRES   REMARKS
GREELEY ARPT   FAIR      55  38  52 N15       30.19F
AKRON          PTSUNNY   56  36  47 N24G35    30.15F
BURLINGTON     PTSUNNY   57  38  48 N18G25    30.12F
WRAY           CLOUDY    59  37  44 N20G28    30.11F
YUMA           CLOUDY    54  25  32 N18G28    30.13F
STERLING       CLOUDY    55  36  47 N20G26    30.13F
HOLYOKE        NOT AVBL
FORT MORGAN    CLOUDY    56  35  43 N16       30.18F
$$

COZ086-089-092>099-231800-
...SOUTHEAST COLORADO...

CITY           SKY/WX    TMP DP  RH WIND       PRES   REMARKS
PUEBLO         FAIR      62  29  28 N15G26    30.18F
LA JUNTA       FAIR      63  34  33 N23G33    30.16F
LAMAR          PTSUNNY   60  36  40 N20       30.12F
SPRINGFIELD      N/A     57  37  47 N26G35    30.14F
$$




USA.gov is the U.S. government's official web portal to all federal, state and local government web resources and services.